Location: Losili
(4.4086°N, 32.7049°E)
Time: 06:08:11
(UTC+00:00)

CZ-4 R/B - Pass Details

Date: 18 September 2019
Orbit: 532 x 599 km, 97.8° (Epoch: 19 October)

Event Time Altitude Azimuth Distance (km) Brightness Sun altitude
Rises 16:19:30 0° 163° (SSE) 2,672 4.6 -8.9°
Reaches altitude 10° 16:21:37 10° 159° (SSE) 1,778 3.7 -9.4°
Maximum altitude 16:25:24 62° 79° (ENE) 599 1.2 -10.3°
Drops below altitude 10° 16:29:11 10° 357° (N) 1,777 4.0 -11.3°
Sets 16:31:19 0° 354° (N) 2,670 4.9 -11.8°
